Regional Weather Roundup
Issued by NWS

Home | Current Version | Previous Version | Text Only | Print | Product List | Glossary Off
Versions: 1 2 3 4 5 6 7 8 9 10 11 12 13 14 15 16 17 18 19 20 21 22 23 24 25 26 27 28 29 30 31 32 33 34 35 36 37 38 39 40 41 42 43 44 45 46 47 48 49 50

000
ASUS43 KLOT 262103
RWRIL

ILLINOIS REGIONAL WEATHER ROUNDUP
NATIONAL WEATHER SERVICE CHICAGO/ROMEOVILLE IL
400 PM CDT MON SEP 26 2016

NOTE: "FAIR" INDICATES FEW OR NO CLOUDS BELOW 12,000 FEET WITH NO
SIGNIFICANT WEATHER AND/OR OBSTRUCTIONS TO VISIBILITY.

* THESE STATIONS ARE NOT UNDER NWS QUALITY CONTROL. THEY ALSO MAY NOT
  REPORT WEATHER SUCH AS PRECIPITATION OR FOG.

ILZ001-002-007-009-015-016-024-262200-
NORTHWEST ILLINOIS

CITY           SKY/WX    TMP DP  RH WIND       PRES   REMARKS
MOLINE         SUNNY     72  33  24 W20G30    30.00F
STERLING*      SUNNY     70  35  27 W26G36    29.97S
SAVANNA*       SUNNY     70  35  27 W14G24    29.96F
$$

ILZ003-004-008-010-011-017-018-262200-
NORTH CENTRAL ILLINOIS

CITY           SKY/WX    TMP DP  RH WIND       PRES   REMARKS
ROCKFORD       MOSUNNY   69  35  28 W21G35    29.95F
FREEPORT*      SUNNY     67  34  29 W22G28    29.96F
ROCHELLE*      SUNNY     68  37  31 W20G32    29.96S
$$

ILZ005-006-012>014-019>023-262200-
NORTHEAST ILLINOIS

CITY           SKY/WX    TMP DP  RH WIND       PRES   REMARKS
CHICAGO-OHARE  MOSUNNY   69  34  27 W18G29    29.92F
CHICAGO-MIDWAY MOSUNNY   71  32  23 W23G32    29.93S
AURORA         SUNNY     70  33  25 W23G33    29.95S
LANSING*       SUNNY     70  40  33 W18G31    29.94F
JOLIET*        SUNNY     72  34  24 W16G26    29.96S
WAUKEGAN       MOSUNNY   67  36  31 W10G24    29.89S
DUPAGE AIRPORT SUNNY     69  33  26 W18G33    29.93F
KANKAKEE*      SUNNY     72  32  22 W16G22    29.97S
WHEELING       SUNNY     68  34  28 W21G26    29.92F
MORRIS*        SUNNY     72  29  20 W20G30    29.95S
ROMEOVILLE*    SUNNY     70  40  33 W21G26    29.95S
NORTHERLY ISL    N/A     70  33  25 NW9         N/A
$$

LMZ740>746-262200-
SOUTHERN LAKE MICHIGAN

STATION/POSITION SKY/WX   TEMP    WIND        PRES    VSBY  WAVE
                          AIR SEA DIR/SP/G                  HT/PER
                          (F)     (DEG/KT/KT) (MB)    (MI)  (FT/S)
SOUTHERN BUOY              65 71  250/ 23/ 27 1011.2          5/ 5
WILMETTE HARBOR            65 63  290/ 17/ 25   N/A           3/ 3
HARRISON CRIB              67     280/ 22/ 26   N/A
BURNHAM HARBOR             70     230/  5/ 18   N/A
CALUMET HARBOR             69     220/ 17/ 26 1013.3F
BURNS HARBOR               67     270/ 19/ 26 1014.2F
MICHIGAN CITY              65     230/ 23/ 27   N/A
MICHIGAN CITY 6N           67 66  260/ 17/ 23   N/A           5/ 5
ST. JOSEPH                 66 65  260/ 19/ 25 1013.6S         6/ 6
$$

ILZ025>027-034>036-040-047-049-050-058-095>099-262200-
WEST-CENTRAL ILLINOIS

CITY           SKY/WX    TMP DP  RH WIND       PRES   REMARKS
QUINCY         SUNNY     72  34  24 W14       30.09F
GALESBURG*     SUNNY     71  32  24 W20G30    30.03F
MACOMB*        SUNNY     73  32  22 W20       30.08S
JACKSONVILLE*  SUNNY     74  32  21 W15G21    30.08S
PITTSFIELD*    SUNNY     73  36  25 W10G18    30.10S
$$

ILZ028>032-037-038-041>044-048-051>054-059>061-262200-
CENTRAL ILLINOIS

CITY           SKY/WX    TMP DP  RH WIND       PRES   REMARKS
PONTIAC        SUNNY     73  34  23 W21G28    30.00S
BLOOMINGTON    SUNNY     71  33  24 W18G25    30.03F
DECATUR        SUNNY     74  36  25 W12G22    30.05S
PEORIA         SUNNY     72  31  22 W17G24    30.03S
LACON*         SUNNY     71  26  18 W14G28    30.00S
LINCOLN*       SUNNY     73  36  25 W7G18     30.04S
SPRINGFIELD    SUNNY     76  30  18 NW12G22   30.06S
TAYLORVILLE    SUNNY     74  33  22 W10       30.06F
$$

ILZ033-039-045-046-055>057-062-063-262200-
EAST-CENTRAL ILLINOIS

CITY           SKY/WX    TMP DP  RH WIND       PRES   REMARKS
CHAMPAIGN      SUNNY     74  34  23 W15G24    30.03F
RANTOUL*       SUNNY     75  34  22 W14G23    30.01F
MATTOON        SUNNY     73  34  23 W12G22    30.05S
PARIS*         SUNNY     74  36  25 W8        30.05S
$$

ILZ079-100>102-262200-
SOUTHWEST ILLINOIS

CITY           SKY/WX    TMP DP  RH WIND       PRES   REMARKS
ALTON          SUNNY     72  39  30 W14       30.10F
BELLEVILLE     SUNNY     74  40  29 W12       30.09F
CAHOKIA*       SUNNY     75  37  25 W7G17     30.10F
SPARTA*        SUNNY     72  45  37 NW8       30.11F
$$

ILZ064>066-069>071-074>076-080>082-084>086-088>090-092>094-262200-
SOUTH-CENTRAL ILLINOIS

CITY           SKY/WX    TMP DP  RH WIND       PRES   REMARKS
CARBONDALE     SUNNY     73  49  42 NW9       30.10F
EFFINGHAM*     SUNNY     74  42  32 W15       30.08F
MARION         MOSUNNY   73  48  40 NW12      30.10F
MT. VERNON     SUNNY     73  45  35 CALM      30.10S
CENTRALIA*     SUNNY     75  44  33 W8G16     30.08F
SALEM*         SUNNY     74  38  27 W12       30.09F
METROPOLIS*    MOSUNNY   74  53  47 CALM      30.09F
$$

ILZ067-068-072-073-078-083-087-091-262200-
SOUTHEAST ILLINOIS

CITY           SKY/WX    TMP DP  RH WIND       PRES   REMARKS
LAWRENCEVILLE  SUNNY     74  45  35 W10       30.06F
FLORA*         SUNNY     74  42  31 W12       30.07F
FAIRFIELD*     SUNNY     72  47  40 NW6       30.07F
HARRISBURG*    SUNNY     73  50  45 NW9       30.09F
ROBINSON*      SUNNY     73  41  32 NW10      30.06F
CARMI*         SUNNY     74  49  41 NW9       30.07F
$$

ABBREVIATIONS USED IN REMARKS
   TC - TEMPERATURE IN CELSIUS
  WCI - WIND CHILL INDEX
   HX - HEAT INDEX
  VSB - VISIBILITY
$$





USA.gov is the U.S. government's official web portal to all federal, state and local government web resources and services.